Weather History for Mount Sterling, KY

Change the Weather History Date:

Saturday, November 24, 2012

  Actual Average Record
Temperature  
Mean Temperature 28 °F -  
Max Temperature 35 °F 51 °F 30 °F (2013)
Min Temperature 21 °F 34 °F 15 °F (2013)
Degree Days  
Heating Degree Days 37    
Moisture  
Dew Point 21 °F    
Average Humidity 69    
Maximum Humidity 93    
Minimum Humidity 60    
Precipitation  
Precipitation 0.00 in - - ()
Sea Level Pressure  
Sea Level Pressure 30.19 in    
Wind  
Wind Speed 5 mph ()    
Max Wind Speed 9 mph    
Max Gust Speed -    
Visibility 10.0 miles    
Events      
Averages and records for this station are not official NWS values.
T = Trace of Precipitation, MM = Missing Value Source: Averaged Metar Reports

Daily Weather History Graph

Daily Weather History Graph

Search for Another Location

Airport:

Trip Planner

Search our weather history database for the weather conditions in past years. The results will help you decide how hot, cold, wet, or windy it might be!

Date:

Astronomy

Nov. 24, 2012 Rise Set
Actual Time 7:26 AM EST 5:18 PM EST
Civil Twilight 6:58 AM EST 5:47 PM EST
Nautical Twilight 6:25 AM EST 6:19 PM EST
Astronomical Twilight 5:54 AM EST 6:51 PM EST
Moon 3:00 PM EST (11/24) 3:45 AM EST (11/24)
Length of Visible Light 10h 49m
Length of Day
9h 51m
Waxing Gibbous, 87% of the Moon is Illuminated
Nov 24
Waxing Gibbous
Nov 28
Full
Dec 6
Last Quarter
Dec 13
New
Dec 20
First Quarter

Hourly Weather History & Observations

Time (EST) Temp. Windchill Dew Point Humidity Pressure Visibility Wind Dir Wind Speed Gust Speed Precip Events Conditions
12:15 AM 35.6 °F 29.2 °F 26.6 °F 70% 30.17 in 10.0 mi North 8.1 mph - N/A   Overcast
12:35 AM 33.8 °F 29.6 °F 26.6 °F 75% 30.17 in 10.0 mi NNW 4.6 mph - N/A   Overcast
12:55 AM 33.8 °F 27.7 °F 26.6 °F 75% 30.17 in 10.0 mi North 6.9 mph - N/A   Overcast
1:15 AM 33.8 °F 27.7 °F 23.0 °F 65% 30.17 in 10.0 mi North 6.9 mph - N/A   Overcast
1:35 AM 33.8 °F 29.6 °F 23.0 °F 65% 30.17 in 10.0 mi NNE 4.6 mph - N/A   Overcast
1:55 AM 32.0 °F 24.8 °F 23.0 °F 69% 30.16 in 10.0 mi North 8.1 mph - N/A   Overcast
2:15 AM 32.0 °F 27.5 °F 23.0 °F 69% 30.17 in 10.0 mi North 4.6 mph - N/A   Overcast
2:35 AM 32.0 °F 26.4 °F 23.0 °F 69% 30.17 in 10.0 mi North 5.8 mph - N/A   Overcast
2:55 AM 32.0 °F 26.4 °F 23.0 °F 69% 30.17 in 10.0 mi NNW 5.8 mph - N/A   Overcast
3:15 AM 32.0 °F 28.7 °F 23.0 °F 69% 30.17 in 10.0 mi North 3.5 mph - N/A   Overcast
3:35 AM 32.0 °F 28.7 °F 23.0 °F 69% 30.18 in 10.0 mi North 3.5 mph - N/A   Overcast
3:55 AM 32.0 °F 25.6 °F 23.0 °F 69% 30.17 in 10.0 mi North 6.9 mph - N/A   Overcast
4:15 AM 32.0 °F 26.4 °F 23.0 °F 69% 30.17 in 10.0 mi North 5.8 mph - N/A   Overcast
4:35 AM 32.0 °F 25.6 °F 23.0 °F 69% 30.17 in 10.0 mi North 6.9 mph - N/A   Overcast
4:55 AM 32.0 °F 28.7 °F 23.0 °F 69% 30.18 in 10.0 mi NNW 3.5 mph - N/A   Overcast
5:15 AM 32.0 °F 26.4 °F 21.2 °F 64% 30.18 in 10.0 mi North 5.8 mph - N/A   Overcast
5:35 AM 32.0 °F 26.4 °F 21.2 °F 64% 30.18 in 10.0 mi North 5.8 mph - N/A   Overcast
5:55 AM 32.0 °F 24.8 °F 21.2 °F 64% 30.18 in 10.0 mi North 8.1 mph - N/A   Overcast
6:15 AM 30.2 °F 24.3 °F 21.2 °F 69% 30.19 in 10.0 mi NNW 5.8 mph - N/A   Overcast
6:35 AM 30.2 °F 26.7 °F 21.2 °F 69% 30.19 in 10.0 mi North 3.5 mph - N/A   Overcast
6:55 AM 30.2 °F 23.4 °F 19.4 °F 64% 30.20 in - North 6.9 mph - N/A   Overcast
7:15 AM 30.2 °F 24.3 °F 21.2 °F 69% 30.20 in - NNW 5.8 mph - N/A   Overcast
7:35 AM 30.2 °F 21.9 °F 21.2 °F 69% 30.20 in - NNW 9.2 mph - N/A   Overcast
7:55 AM 30.2 °F 25.4 °F 19.4 °F 64% 30.21 in - NW 4.6 mph - N/A   Overcast
8:15 AM 30.2 °F 25.4 °F 19.4 °F 64% 30.22 in - NW 4.6 mph - N/A   Overcast
8:35 AM 30.2 °F 24.3 °F 19.4 °F 64% 30.23 in - NW 5.8 mph - N/A   Overcast
8:55 AM 30.2 °F 23.4 °F 21.2 °F 69% 30.23 in - NNW 6.9 mph - N/A   Overcast
9:15 AM 30.2 °F 24.3 °F 21.2 °F 69% 30.23 in - NW 5.8 mph - N/A   Overcast
9:35 AM 30.2 °F 23.4 °F 19.4 °F 64% 30.23 in - WNW 6.9 mph - N/A   Overcast
9:55 AM 30.2 °F 24.3 °F 19.4 °F 64% 30.24 in - NNW 5.8 mph - N/A   Overcast
10:15 AM 32.0 °F 27.5 °F 21.2 °F 64% 30.23 in - NNW 4.6 mph - N/A   Overcast
10:35 AM 32.0 °F - 19.4 °F 60% 30.23 in - Calm Calm - N/A   Overcast
10:55 AM 32.0 °F 28.7 °F 19.4 °F 60% 30.24 in - NNW 3.5 mph - N/A   Overcast
11:15 AM 32.0 °F 25.6 °F 19.4 °F 60% 30.24 in - NW 6.9 mph - N/A   Overcast
11:35 AM 32.0 °F 27.5 °F 19.4 °F 60% 30.23 in - NNE 4.6 mph - N/A   Overcast
11:55 AM 32.0 °F 25.6 °F 21.2 °F 64% 30.23 in - North 6.9 mph - N/A   Overcast
12:15 PM 32.0 °F 25.6 °F 19.4 °F 60% 30.22 in - North 6.9 mph - N/A   Overcast
12:35 PM 32.0 °F 28.7 °F 19.4 °F 60% 30.21 in - NNW 3.5 mph - N/A   Overcast
12:55 PM 32.0 °F - 19.4 °F 60% 30.21 in - Calm Calm - N/A   Overcast
1:15 PM 32.0 °F 28.7 °F 21.2 °F 64% 30.21 in - North 3.5 mph - N/A   Overcast
1:35 PM 32.0 °F 25.6 °F 19.4 °F 60% 30.20 in - NNW 6.9 mph - N/A   Overcast
1:55 PM 32.0 °F 25.6 °F 21.2 °F 64% 30.20 in - WNW 6.9 mph - N/A   Overcast
2:15 PM 32.0 °F 27.5 °F 19.4 °F 60% 30.20 in - NW 4.6 mph - N/A   Overcast
2:35 PM 33.8 °F 26.4 °F 21.2 °F 60% 30.19 in - WNW 9.2 mph - N/A   Overcast
2:55 PM 33.8 °F 28.6 °F 21.2 °F 60% 30.19 in - WNW 5.8 mph - N/A   Overcast
3:15 PM 33.8 °F 30.8 °F 21.2 °F 60% 30.20 in - NW 3.5 mph - N/A   Overcast
3:35 PM 32.0 °F 28.7 °F 21.2 °F 64% 30.19 in - West 3.5 mph - N/A   Overcast
3:55 PM 33.8 °F 29.6 °F 21.2 °F 60% 30.20 in - WNW 4.6 mph - N/A   Overcast
4:15 PM 32.0 °F 24.8 °F 19.4 °F 60% 30.20 in - West 8.1 mph - N/A   Overcast
4:35 PM 32.0 °F 27.5 °F 21.2 °F 64% 30.20 in - West 4.6 mph - N/A   Overcast
4:55 PM 32.0 °F 27.5 °F 21.2 °F 64% 30.20 in - West 4.6 mph - N/A   Overcast
5:15 PM 32.0 °F 27.5 °F 19.4 °F 60% 30.20 in - West 4.6 mph - N/A   Overcast
5:35 PM 32.0 °F 28.7 °F 19.4 °F 60% 30.19 in - West 3.5 mph - N/A   Overcast
5:55 PM 32.0 °F 28.7 °F 21.2 °F 64% 30.19 in - West 3.5 mph - N/A   Overcast
6:15 PM 30.2 °F 26.7 °F 21.2 °F 69% 30.20 in - WSW 3.5 mph - N/A   Mostly Cloudy
6:35 PM 30.2 °F 26.7 °F 21.2 °F 69% 30.20 in - West 3.5 mph - N/A   Overcast
6:55 PM 30.2 °F 26.7 °F 19.4 °F 64% 30.19 in - WSW 3.5 mph - N/A   Overcast
7:15 PM 30.2 °F - 19.4 °F 64% 30.19 in - Calm Calm - N/A   Mostly Cloudy
7:35 PM 26.6 °F 22.6 °F 21.2 °F 80% 30.20 in - WSW 3.5 mph - N/A   Scattered Clouds
7:55 PM 26.6 °F 22.6 °F 21.2 °F 80% 30.19 in - WSW 3.5 mph - N/A   Clear
8:15 PM 26.6 °F - 21.2 °F 80% 30.18 in - Calm Calm - N/A   Clear
8:35 PM 24.8 °F 20.5 °F 21.2 °F 86% 30.18 in - SW 3.5 mph - N/A   Unknown
8:55 PM 24.8 °F 20.5 °F 21.2 °F 86% 30.18 in - SW 3.5 mph - N/A   Unknown
9:15 PM 24.8 °F 20.5 °F 19.4 °F 80% 30.18 in - SW 3.5 mph - N/A   Clear
9:35 PM 24.8 °F 20.5 °F 19.4 °F 80% 30.17 in - SSW 3.5 mph - N/A   Clear
9:55 PM 21.2 °F 16.4 °F 19.4 °F 93% 30.17 in - SW 3.5 mph - N/A   Unknown
10:15 PM 23.0 °F 17.0 °F 19.4 °F 86% 30.17 in - SSW 4.6 mph - N/A   Unknown
10:35 PM 23.0 °F 17.0 °F 19.4 °F 86% 30.16 in - SSW 4.6 mph - N/A   Unknown
10:55 PM 23.0 °F 17.0 °F 19.4 °F 86% 30.16 in - SW 4.6 mph - N/A   Unknown
11:15 PM 23.0 °F 15.8 °F 19.4 °F 86% 30.15 in 10.0 mi SW 5.8 mph - N/A   Clear
11:35 PM 24.8 °F 19.1 °F 19.4 °F 80% 30.15 in 10.0 mi SW 4.6 mph - N/A   Clear
11:55 PM 24.8 °F 17.9 °F 19.4 °F 80% 30.15 in 10.0 mi SW 5.8 mph - N/A   Clear